Weather History for Fort Meade, MD

Change the Weather History Date:

Friday, September 7, 2012

  Actual Average (KBWI) Record (KBWI)
Temperature  
Mean Temperature 74 °F 71 °F  
Max Temperature 87 °F 81 °F 101 °F (1881)
Min Temperature 62 °F 61 °F 45 °F (1962)
Degree Days  
Heating Degree Days 0 0  
Month to date heating degree days 0  
Since 1 July heating degree days 1  
Cooling Degree Days 10 6  
Month to date cooling degree days 50  
Year to date cooling degree days 1060  
Growing Degree Days 24 (Base 50)    
Moisture  
Dew Point 66 °F    
Average Humidity 80    
Maximum Humidity 100    
Minimum Humidity 52    
Precipitation  
Precipitation 0.00 in 0.12 in 3.84 in (1934)
Month to date precipitation 0.84  
Year to date precipitation 28.69  
Snow  
Snow 0.00 in 0.00 in - ()
Month to date snowfall 0.0  
Since 1 July snowfall 0.0  
Snow Depth -    
Sea Level Pressure  
Sea Level Pressure 29.93 in    
Wind  
Wind Speed 2 mph (SSE)    
Max Wind Speed 10 mph    
Max Gust Speed -    
Visibility 8 miles    
Events      
T = Trace of Precipitation, MM = Missing Value Source: NWS Daily Summary

Daily Weather History Graph

Daily Weather History Graph

Search for Another Location

Airport:

Trip Planner

Search our weather history database for the weather conditions in past years. The results will help you decide how hot, cold, wet, or windy it might be!

Date:

Astronomy

Sep. 07, 2012 Rise Set
Actual Time 6:41 AM EDT 7:27 PM EDT
Civil Twilight 6:14 AM EDT 7:54 PM EDT
Nautical Twilight 5:42 AM EDT 8:26 PM EDT
Astronomical Twilight 5:09 AM EDT 8:59 PM EDT
Moon 11:24 PM EDT (9/7) 1:28 PM EDT (9/7)
Length of Visible Light 13h 39m
Length of Day
12h 45m
Waning Gibbous, 58% of the Moon is Illuminated
Sep 7
Waning Gibbous
Sep 8
Last Quarter
Sep 15
New
Sep 22
First Quarter
Sep 29
Full

Hourly Weather History & Observations

Time (EDT) Temp. Heat Index Dew Point Humidity Pressure Visibility Wind Dir Wind Speed Gust Speed Precip Events Conditions
12:09 AM 66.2 °F - 64.4 °F 94% 29.96 in 4.0 mi Calm Calm - N/A   Clear
12:30 AM 66.2 °F - 64.4 °F 94% 29.95 in 5.0 mi Calm Calm - N/A   Clear
12:51 AM 64.4 °F - 64.4 °F 100% 29.96 in 5.0 mi Calm Calm - N/A   Clear
1:12 AM 64.4 °F - 62.6 °F 94% 29.96 in 4.0 mi Calm Calm - N/A   Clear
1:33 AM 64.4 °F - 64.4 °F 100% 29.95 in 4.0 mi Calm Calm - N/A   Clear
1:54 AM 64.4 °F - 62.6 °F 94% 29.95 in 5.0 mi Calm Calm - N/A   Clear
2:15 AM 64.4 °F - 62.6 °F 94% 29.95 in 4.0 mi Calm Calm - N/A   Clear
2:36 AM 64.4 °F - 62.6 °F 94% 29.94 in 4.0 mi Calm Calm - N/A   Clear
2:57 AM 64.4 °F - 62.6 °F 94% 29.94 in 4.0 mi Calm Calm - N/A   Clear
3:21 AM 62.6 °F - 62.6 °F 100% 29.93 in 4.0 mi Calm Calm - N/A   Clear
3:42 AM 62.6 °F - 62.6 °F 100% 29.93 in 5.0 mi Calm Calm - N/A   Clear
4:03 AM 62.6 °F - 62.6 °F 100% 29.93 in 4.0 mi Calm Calm - N/A   Clear
4:24 AM 62.6 °F - 62.6 °F 100% 29.93 in 4.0 mi Calm Calm - N/A   Clear
4:45 AM 62.6 °F - 62.6 °F 100% 29.93 in 4.0 mi Calm Calm - N/A   Clear
5:06 AM 62.6 °F - 60.8 °F 94% 29.93 in 4.0 mi Calm Calm - N/A   Clear
5:27 AM 62.6 °F - 60.8 °F 94% 29.93 in 5.0 mi Calm Calm - N/A   Clear
5:48 AM 62.6 °F - 60.8 °F 94% 29.93 in 5.0 mi Calm Calm - N/A   Clear
6:09 AM 62.6 °F - 60.8 °F 94% 29.93 in 4.0 mi Calm Calm - N/A   Clear
6:33 AM 62.6 °F - 60.8 °F 94% 29.94 in 4.0 mi Calm Calm - N/A   Clear
6:54 AM 62.6 °F - 60.8 °F 94% 29.94 in 3.0 mi Calm Calm - N/A   Clear
7:15 AM 62.6 °F - 60.8 °F 94% 29.94 in 4.0 mi Calm Calm - N/A   Clear
7:36 AM 62.6 °F - 62.6 °F 100% 29.95 in 5.0 mi Calm Calm - N/A   Clear
7:57 AM 64.4 °F - 62.6 °F 94% 29.96 in 5.0 mi Calm Calm - N/A   Clear
8:18 AM 66.2 °F - 64.4 °F 94% 29.97 in 7.0 mi Calm Calm - N/A   Clear
8:39 AM 69.8 °F - 68.0 °F 94% 29.97 in 7.0 mi Calm Calm - N/A   Clear
9:00 AM 71.6 °F - 69.8 °F 94% 29.97 in 10.0 mi Calm Calm - N/A   Clear
9:21 AM 73.4 °F - 68.0 °F 83% 29.97 in 10.0 mi West 3.5 mph - N/A   Clear
9:42 AM 75.2 °F - 69.8 °F 83% 29.97 in 10.0 mi Calm Calm - N/A   Clear
10:03 AM 77.0 °F - 69.8 °F 78% 29.97 in 10.0 mi SSE 3.5 mph - N/A   Clear
10:24 AM 78.8 °F - 69.8 °F 74% 29.97 in 10.0 mi Calm Calm - N/A   Clear
10:48 AM 80.6 °F 83.9 °F 69.8 °F 70% 29.97 in 10.0 mi Calm Calm - N/A   Clear
11:09 AM 80.6 °F 83.9 °F 69.8 °F 70% 29.97 in 10.0 mi Calm Calm - N/A   Clear
11:30 AM 82.4 °F 86.3 °F 69.8 °F 66% 29.96 in 10.0 mi SSE 3.5 mph - N/A   Clear
11:51 AM 82.4 °F 86.3 °F 69.8 °F 66% 29.95 in 10.0 mi SSE 4.6 mph - N/A   Clear
12:12 PM 86.0 °F 90.4 °F 69.8 °F 58% 29.95 in 10.0 mi South 3.5 mph - N/A   Clear
12:33 PM 86.0 °F 90.4 °F 69.8 °F 58% 29.95 in 10.0 mi ESE 3.5 mph - N/A   Clear
12:54 PM 86.0 °F 89.4 °F 68.0 °F 55% 29.95 in 10.0 mi Calm Calm - N/A   Clear
1:15 PM 87.8 °F 91.4 °F 68.0 °F 52% 29.94 in 10.0 mi South 5.8 mph - N/A   Clear
1:36 PM 86.0 °F 90.4 °F 69.8 °F 58% 29.93 in 10.0 mi South 4.6 mph - N/A   Scattered Clouds
1:57 PM 87.8 °F 92.6 °F 69.8 °F 55% 29.93 in 10.0 mi SE 6.9 mph - N/A   Scattered Clouds
2:18 PM 87.8 °F 91.4 °F 68.0 °F 52% 29.93 in 10.0 mi SSE 5.8 mph - N/A   Scattered Clouds
2:39 PM 87.8 °F 91.4 °F 68.0 °F 52% 29.92 in 10.0 mi South 8.1 mph - N/A   Clear
3:03 PM 87.8 °F 91.4 °F 68.0 °F 52% 29.91 in 10.0 mi South 8.1 mph - N/A   Clear
3:24 PM 87.8 °F 92.6 °F 69.8 °F 55% 29.90 in 10.0 mi SE 8.1 mph - N/A   Scattered Clouds
4:06 PM 87.8 °F 91.4 °F 68.0 °F 52% 29.90 in 10.0 mi SSE 9.2 mph - N/A   Scattered Clouds
4:27 PM 86.0 °F 89.4 °F 68.0 °F 55% 29.90 in 10.0 mi SSE 10.4 mph - N/A   Clear
4:48 PM 86.0 °F 89.4 °F 68.0 °F 55% 29.90 in 10.0 mi SSE 9.2 mph - N/A   Clear
5:09 PM 84.2 °F 86.6 °F 66.2 °F 55% 29.90 in 10.0 mi South 8.1 mph - N/A   Clear
5:51 PM 82.4 °F 84.6 °F 66.2 °F 58% 29.89 in 10.0 mi South 5.8 mph - N/A   Clear
6:12 PM 82.4 °F 84.6 °F 66.2 °F 58% 29.89 in 10.0 mi SSE 3.5 mph - N/A   Clear
6:33 PM 80.6 °F 83.2 °F 68.0 °F 65% 29.89 in 10.0 mi Calm Calm - N/A   Clear
6:57 PM 78.8 °F - 68.0 °F 69% 29.89 in 10.0 mi SSE 5.8 mph - N/A   Clear
7:18 PM 77.0 °F - 69.8 °F 78% 29.90 in 10.0 mi SSE 3.5 mph - N/A   Clear
7:39 PM 75.2 °F - 69.8 °F 83% 29.90 in 10.0 mi SE 5.8 mph - N/A   Clear
8:00 PM 75.2 °F - 68.0 °F 78% 29.90 in 10.0 mi SE 6.9 mph - N/A   Clear
8:21 PM 75.2 °F - 68.0 °F 78% 29.90 in 10.0 mi SE 8.1 mph - N/A   Clear
8:42 PM 73.4 °F - 68.0 °F 83% 29.91 in 10.0 mi SSE 4.6 mph - N/A   Clear
9:03 PM 73.4 °F - 68.0 °F 83% 29.91 in 10.0 mi SE 3.5 mph - N/A   Clear
9:24 PM 71.6 °F - 68.0 °F 88% 29.90 in 10.0 mi SE 4.6 mph - N/A   Clear
9:45 PM 71.6 °F - 68.0 °F 88% 29.90 in 10.0 mi SE 3.5 mph - N/A   Clear
10:27 PM 71.6 °F - 66.2 °F 83% 29.88 in 10.0 mi SE 5.8 mph - N/A   Clear
11:12 PM 71.6 °F - 66.2 °F 83% 29.85 in 10.0 mi SSE 4.6 mph - N/A   Clear
11:33 PM 69.8 °F - 66.2 °F 88% 29.86 in 10.0 mi SSE 3.5 mph - N/A   Clear
11:54 PM 68.0 °F - 64.4 °F 88% 29.89 in 10.0 mi Calm Calm - N/A   Clear